EW5962 Weather Reports


time (UTC)temp
C
wind
direction
speed
KPH
gust
KPH
rain 1hr
cm
rain 24hr
cm
rain mn
cm
humidity
%
barometer
mb
20260831025002 21 219 0.0 0.0 0.00 0.00 0.00 93 1019.3
20260831024509 21 219 0.0 0.0 0.00 0.00 0.00 93 1019.3
20260831024103 21 219 0.0 0.0 0.00 0.00 0.00 93 1019.3
20260831023502 21 219 0.0 0.0 0.00 0.00 0.00 93 1019.3
20260831023009 21 219 0.0 0.0 0.00 0.00 0.00 93 1019.3
20260831022603 21 219 0.0 0.0 0.00 0.00 0.00 93 1019.3
20260831022003 21 219 0.0 0.0 0.00 0.00 0.00 93 1019.2
20260831021509 21 219 0.0 0.0 0.00 0.00 0.00 92 1019.2
20260831021104 21 219 0.0 0.0 0.00 0.00 0.00 92 1019.1
20260831020503 21 219 0.0 0.0 0.00 0.00 0.00 92 1019.1
20260831020009 21 219 0.0 0.0 0.00 0.00 0.00 92 1019.0
20260831015603 22 219 0.0 0.0 0.00 0.00 0.00 92 1018.9
20260831015002 22 219 0.0 0.0 0.00 0.00 0.00 92 1018.9
20260831014508 22 219 0.0 0.0 0.00 0.00 0.00 92 1018.9
20260831014103 22 219 0.0 0.0 0.00 0.00 0.00 91 1018.9
20260831013504 22 219 0.0 0.0 0.00 0.00 0.00 91 1018.8
20260831013011 22 219 0.0 0.0 0.00 0.00 0.00 91 1019.0
20260831012602 22 219 0.0 0.0 0.00 0.00 0.00 91 1018.9
20260831012002 22 219 0.0 0.0 0.00 0.00 0.00 91 1018.9
20260831011509 22 219 0.0 0.0 0.00 0.00 0.00 91 1018.8
20260831011103 22 219 0.0 0.0 0.00 0.00 0.00 90 1018.7
20260831010503 22 219 0.0 0.0 0.00 0.00 0.00 90 1018.5
20260831010009 22 219 0.0 0.0 0.00 0.00 0.00 89 1018.5
20260831005604 23 219 0.0 0.0 0.00 0.00 0.00 89 1018.5
20260831005003 23 219 0.0 0.0 0.00 0.00 0.00 89 1018.4
20260831004508 23 219 0.0 0.0 0.00 0.00 0.00 88 1018.5
20260831004102 23 219 0.0 0.0 0.00 0.00 0.00 88 1018.5
20260831003505 23 219 0.0 0.0 0.00 0.00 0.00 87 1018.4
20260831003008 23 219 0.0 0.0 0.00 0.00 0.00 87 1018.4
20260831002602 23 219 0.0 0.0 0.00 0.00 0.00 86 1018.4
20260831002002 24 219 0.0 0.0 0.00 0.00 0.00 86 1018.4
20260831001508 24 219 0.0 0.0 0.00 0.00 0.00 85 1018.3
20260831001103 24 219 0.0 0.0 0.00 0.00 0.00 85 1018.4
20260831000503 25 219 0.0 0.0 0.00 0.00 0.00 84 1018.4
20260831000019 25 219 0.0 0.0 0.00 0.00 0.00 84 1018.5
20260830235602 25 219 0.0 0.0 0.00 0.00 0.00 83 1018.5
20260830235003 25 219 0.0 0.0 0.00 0.00 0.00 83 1018.5
20260830234508 25 219 0.0 0.0 0.00 0.00 0.00 82 1018.4
20260830234103 25 219 0.0 0.0 0.00 0.00 0.00 82 1018.4
20260830233503 25 219 0.0 0.0 0.00 0.00 0.00 81 1018.5
20260830233008 26 219 0.0 0.0 0.00 0.00 0.00 80 1018.5
20260830232603 26 219 0.0 0.0 0.00 0.00 0.00 80 1018.4
20260830232004 26 219 0.0 0.0 0.00 0.00 0.00 79 1018.5
20260830231508 26 219 0.0 0.0 0.00 0.00 0.00 77 1018.5
20260830231102 26 219 0.0 0.0 0.00 0.00 0.00 78 1018.4
20260830230502 26 219 0.0 0.0 0.00 0.00 0.00 77 1018.4
20260830230015 26 219 0.0 0.0 0.00 0.00 0.00 76 1018.5
20260830225603 27 219 0.0 0.0 0.00 0.00 0.00 76 1018.3
20260830225002 27 219 0.0 0.0 0.00 0.00 0.00 74 1018.4
20260830224511 27 219 0.0 0.0 0.00 0.00 0.00 75 1018.4
20260830224104 27 219 0.0 0.0 0.00 0.00 0.00 75 1018.3
20260830223503 27 220 0.0 0.0 0.00 0.00 0.00 73 1018.4
20260830223009 27 220 0.0 0.0 0.00 0.00 0.00 74 1018.3
20260830222606 27 220 0.0 0.0 0.00 0.00 0.00 71 1018.2
20260830222004 27 220 0.0 0.0 0.00 0.00 0.00 72 1018.2
20260830221508 28 220 0.0 0.0 0.00 0.00 0.00 72 1018.1
20260830221103 28 220 0.0 0.0 0.00 0.00 0.00 71 1018.1
20260830220503 28 220 0.0 0.0 0.00 0.00 0.00 70 1018.1
20260830220009 28 220 0.0 0.0 0.00 0.00 0.00 67 1018.2
20260830215604 28 220 0.0 0.0 0.00 0.00 0.00 68 1018.2
20260830215002 28 218 0.0 0.0 0.00 0.00 0.00 67 1018.2
20260830214508 28 186 0.0 0.0 0.00 0.00 0.00 67 1018.1
20260830214103 28 198 0.0 0.0 0.00 0.00 0.00 68 1018.2
20260830213504 29 198 0.0 0.0 0.00 0.00 0.00 66 1018.2
20260830213018 29 200 0.0 0.0 0.00 0.00 0.00 65 1018.2
20260830212602 29 200 0.0 0.0 0.00 0.00 0.00 64 1018.1
20260830212002 30 200 0.0 0.0 0.00 0.00 0.00 66 1018.1
20260830211510 30 200 0.0 0.0 0.00 0.00 0.00 60 1018.1
20260830211102 30 200 0.0 1.6 0.00 0.00 0.00 59 1018.1
20260830210502 30 199 0.0 1.6 0.00 0.00 0.00 60 1018.2
20260830210009 30 198 0.0 0.0 0.00 0.00 0.00 62 1018.2
20260830205605 30 196 0.0 1.6 0.00 0.00 0.00 61 1018.3
20260830205004 31 227 0.0 3.2 0.00 0.00 0.00 61 1018.4
20260830204512 31 171 0.0 3.2 0.00 0.00 0.00 60 1018.4
20260830204103 31 202 0.0 1.6 0.00 0.00 0.00 56 1018.4
20260830203502 31 202 0.0 3.2 0.00 0.00 0.00 60 1018.4
20260830203009 31 202 0.0 8.0 0.00 0.00 0.00 59 1018.5
20260830202604 31 238 0.0 8.0 0.00 0.00 0.00 60 1018.5
20260830202003 30 193 0.0 3.2 0.00 0.00 0.00 59 1018.5
20260830201508 30 226 0.0 1.6 0.00 0.00 0.00 60 1018.6
20260830201103 30 224 0.0 1.6 0.00 0.00 0.00 59 1018.7
20260830200502 30 175 0.0 1.6 0.00 0.00 0.00 62 1018.8
20260830200008 30 201 0.0 3.2 0.00 0.00 0.00 62 1018.9
20260830195605 30 214 0.0 3.2 0.00 0.00 0.00 60 1018.9
20260830195002 30 183 0.0 1.6 0.00 0.00 0.00 61 1018.9
20260830194509 30 195 0.0 6.4 0.00 0.00 0.00 65 1019.0
20260830194104 30 189 0.0 6.4 0.00 0.00 0.00 63 1019.1
20260830193502 30 235 0.0 4.8 0.00 0.00 0.00 64 1019.1
20260830193009 30 239 0.0 4.8 0.00 0.00 0.00 63 1019.2
20260830192603 30 218 1.6 4.8 0.00 0.00 0.00 63 1019.2
20260830192003 30 208 0.0 4.8 0.00 0.00 0.00 63 1019.3
20260830191509 30 163 0.0 3.2 0.00 0.00 0.00 66 1019.3
20260830191103 30 175 0.0 3.2 0.00 0.00 0.00 64 1019.3
20260830190502 30 13 0.0 4.8 0.00 0.00 0.00 64 1019.3
20260830190009 30 196 0.0 4.8 0.00 0.00 0.00 65 1019.4
20260830185603 30 229 0.0 3.2 0.00 0.00 0.00 66 1019.4
20260830185003 29 185 0.0 1.6 0.00 0.00 0.00 65 1019.6
20260830184517 29 200 0.0 1.6 0.00 0.00 0.00 67 1019.7
20260830184103 29 211 0.0 1.6 0.00 0.00 0.00 65 1019.8
20260830183502 29 183 0.0 3.2 0.00 0.00 0.00 69 1019.9
20260830183008 29 211 0.0 3.2 0.00 0.00 0.00 69 1019.9
20260830182604 29 176 0.0 4.8 0.00 0.00 0.00 67 1020.1
20260830182003 29 204 0.0 4.8 0.00 0.00 0.00 68 1020.3
20260830181508 29 203 0.0 4.8 0.00 0.00 0.00 69 1020.4
20260830181102 28 195 0.0 4.8 0.00 0.00 0.00 71 1020.4
20260830180503 28 186 0.0 4.8 0.00 0.00 0.00 68 1020.6
20260830180015 28 238 0.0 4.8 0.00 0.00 0.00 70 1020.6
20260830175602 28 188 0.0 1.6 0.00 0.00 0.00 71 1020.6
20260830175004 28 169 0.0 1.6 0.00 0.00 0.00 72 1020.7
20260830174508 28 134 0.0 0.0 0.00 0.00 0.00 75 1020.7
20260830174103 28 134 0.0 0.0 0.00 0.00 0.00 72 1020.8
20260830173503 28 197 0.0 1.6 0.00 0.00 0.00 71 1020.9
20260830173008 28 197 0.0 1.6 0.00 0.00 0.00 73 1021.0
20260830172602 27 226 0.0 1.6 0.00 0.00 0.00 73 1021.1
20260830172004 27 290 0.0 1.6 0.00 0.00 0.00 76 1021.0
20260830171509 27 209 0.0 1.6 0.00 0.00 0.00 74 1021.1
20260830171103 27 205 0.0 1.6 0.00 0.00 0.00 75 1021.1
20260830170502 26 169 0.0 1.6 0.00 0.00 0.00 78 1021.2
20260830170009 26 194 0.0 1.6 0.00 0.00 0.00 79 1021.3
20260830165603 26 191 0.0 6.4 0.00 0.00 0.00 81 1021.3
20260830165002 26 184 0.0 6.4 0.00 0.00 0.00 80 1021.4
20260830164533 25 181 0.0 3.2 0.00 0.00 0.00 81 1021.4
20260830164102 25 219 0.0 0.0 0.00 0.00 0.00 83 1021.5
20260830163503 24 169 0.0 0.0 0.00 0.00 0.00 86 1021.7
20260830163009 24 321 0.0 0.0 0.00 0.00 0.00 85 1021.7
20260830162606 24 334 0.0 0.0 0.00 0.00 0.00 85 1021.8
20260830162001 24 334 0.0 1.6 0.00 0.00 0.00 88 1021.8
20260830161508 23 333 0.0 1.6 0.00 0.00 0.00 85 1021.8
20260830161105 23 349 0.0 1.6 0.00 0.00 0.00 87 1021.9
20260830160502 23 264 0.0 0.0 0.00 0.00 0.00 86 1022.0
20260830160008 23 264 0.0 0.0 0.00 0.00 0.00 89 1022.0
20260830155602 23 264 0.0 0.0 0.00 0.00 0.00 88 1022.0
20260830155005 23 264 0.0 0.0 0.00 0.00 0.00 87 1022.0
20260830154512 23 264 0.0 0.0 0.00 0.00 0.00 89 1022.0
20260830154101 23 263 0.0 0.0 0.00 0.00 0.00 89 1022.0
20260830153504 23 263 0.0 0.0 0.00 0.00 0.00 88 1022.0
20260830153014 23 263 0.0 0.0 0.00 0.00 0.00 90 1022.1
20260830152603 23 266 0.0 0.0 0.00 0.00 0.00 90 1022.1
20260830152108 23 310 0.0 0.0 0.00 0.00 0.00 90 1021.9
20260830151509 22 312 0.0 0.0 0.00 0.00 0.00 91 1022.0
20260830151105 22 313 0.0 0.0 0.00 0.00 0.00 90 1022.0
20260830150502 22 313 0.0 0.0 0.00 0.00 0.00 90 1022.0
20260830150011 22 313 0.0 0.0 0.00 0.00 0.00 90 1022.1
20260830145603 22 313 0.0 0.0 0.00 0.00 0.00 91 1022.1
20260830145003 22 313 0.0 0.0 0.00 0.00 0.00 91 1022.1
20260830144511 22 313 0.0 0.0 0.00 0.00 0.00 91 1022.0
20260830144102 22 313 0.0 0.0 0.00 0.00 0.00 91 1022.0
20260830143502 22 313 0.0 0.0 0.00 0.00 0.00 91 1022.0
20260830143011 22 313 0.0 0.0 0.00 0.00 0.00 92 1021.9
20260830142601 22 313 0.0 0.0 0.00 0.00 0.00 92 1021.9
20260830142003 22 312 0.0 0.0 0.00 0.00 0.00 92 1022.0
20260830141510 22 311 0.0 0.0 0.00 0.00 0.00 93 1022.0
20260830141102 22 313 0.0 0.0 0.00 0.00 0.00 92 1022.0
20260830140505 22 312 0.0 0.0 0.00 0.00 0.00 92 1022.0
20260830140014 22 311 0.0 1.6 0.00 0.00 0.00 92 1021.9
20260830135602 22 88 0.0 1.6 0.00 0.00 0.00 93 1022.0
20260830135002 22 344 0.0 0.0 0.00 0.00 0.00 93 1022.0
20260830134520 22 249 0.0 0.0 0.00 0.00 0.00 94 1022.0
20260830134105 22 249 0.0 0.0 0.00 0.00 0.00 94 1022.0
20260830133502 21 249 0.0 0.0 0.00 0.00 0.00 93 1022.1
20260830133014 21 249 0.0 0.0 0.00 0.00 0.00 94 1022.1
20260830132603 21 249 0.0 0.0 0.00 0.00 0.00 95 1022.1
20260830132003 21 249 0.0 0.0 0.00 0.00 0.00 95 1022.2
20260830131511 21 249 0.0 0.0 0.00 0.00 0.00 95 1022.2
20260830131103 21 249 0.0 0.0 0.00 0.00 0.00 95 1022.1
20260830130502 21 249 0.0 0.0 0.00 0.00 0.00 96 1022.1
20260830130009 21 249 0.0 0.0 0.00 0.00 0.00 96 1022.1
20260830125604 21 249 0.0 0.0 0.00 0.00 0.00 96 1022.1
20260830125002 21 249 0.0 0.0 0.00 0.00 0.00 96 1022.1
20260830124508 21 249 0.0 1.6 0.00 0.00 0.00 97 1022.1
20260830124102 21 249 0.0 1.6 0.00 0.00 0.00 97 1022.0
20260830123503 21 249 0.0 0.0 0.00 0.00 0.00 98 1022.0
20260830123009 21 249 0.0 0.0 0.00 0.00 0.00 98 1022.0
20260830122605 21 249 0.0 0.0 0.00 0.00 0.00 98 1021.9
20260830122003 20 249 0.0 0.0 0.00 0.00 0.00 98 1021.9
20260830121508 20 249 0.0 0.0 0.00 0.00 0.00 97 1021.9
20260830121102 20 249 0.0 0.0 0.00 0.00 0.00 97 1021.8
20260830120504 20 249 0.0 0.0 0.00 0.00 0.00 97 1021.8
20260830120006 20 249 0.0 0.0 0.00 0.00 0.00 97 1021.8
20260830115511 20 249 0.0 0.0 0.00 0.00 0.00 97 1021.8
20260830115018 20 249 0.0 0.0 0.00 0.00 0.00 97 1021.7
20260830114519 20 249 0.0 0.0 0.00 0.00 0.00 97 1021.7
20260830114101 20 249 0.0 0.0 0.00 0.00 0.00 97 1021.7
20260830113501 20 249 0.0 0.0 0.00 0.00 0.00 97 1021.7
20260830113006 20 249 0.0 0.0 0.00 0.00 0.00 97 1021.6
20260830112515 19 249 0.0 0.0 0.00 0.00 0.00 97 1021.6
20260830112017 19 249 0.0 0.0 0.00 0.00 0.00 97 1021.5
20260830111602 19 249 0.0 0.0 0.00 0.00 0.00 97 1021.5
20260830111006 19 249 0.0 0.0 0.00 0.00 0.00 97 1021.4
20260830110516 19 249 0.0 0.0 0.00 0.00 0.00 97 1021.3
20260830110021 19 249 0.0 0.0 0.00 0.00 0.00 97 1021.2
20260830105504 19 249 0.0 0.0 0.00 0.00 0.00 97 1021.1
20260830105007 19 249 0.0 0.0 0.00 0.00 0.00 97 1021.2
20260830104510 19 249 0.0 0.0 0.00 0.00 0.00 97 1021.1
20260830104016 19 249 0.0 0.0 0.00 0.00 0.00 97 1021.0
20260830103523 19 249 0.0 0.0 0.00 0.00 0.00 97 1020.9
20260830103007 19 249 0.0 0.0 0.00 0.00 0.00 97 1020.9
20260830102510 19 249 0.0 0.0 0.00 0.00 0.00 97 1020.9
20260830102011 19 249 0.0 0.0 0.00 0.00 0.00 97 1020.8
20260830101515 19 249 0.0 0.0 0.00 0.00 0.00 97 1020.8
20260830101021 18 249 0.0 0.0 0.00 0.00 0.00 97 1020.6
20260830100605 18 249 0.0 0.0 0.00 0.00 0.00 97 1020.5
20260830100007 18 249 0.0 0.0 0.00 0.00 0.00 96 1020.5
20260830095516 18 249 0.0 0.0 0.00 0.00 0.00 96 1020.4
20260830095012 18 249 0.0 0.0 0.00 0.00 0.00 96 1020.5
20260830094515 18 249 0.0 0.0 0.00 0.00 0.00 96 1020.4
20260830094024 18 249 0.0 0.0 0.00 0.00 0.00 96 1020.4
20260830093606 18 249 0.0 0.0 0.00 0.00 0.00 96 1020.5
20260830093003 18 249 0.0 0.0 0.00 0.00 0.00 96 1020.5
20260830092508 18 249 0.0 0.0 0.00 0.00 0.00 96 1020.5
20260830092008 18 249 0.0 0.0 0.00 0.00 0.00 96 1020.5
20260830091512 18 249 0.0 0.0 0.00 0.00 0.00 96 1020.5
20260830091016 18 249 0.0 0.0 0.00 0.00 0.00 96 1020.4
20260830090518 19 249 0.0 0.0 0.00 0.00 0.00 96 1020.3
20260830090104 18 249 0.0 0.0 0.00 0.00 0.00 96 1020.3
20260830085503 19 249 0.0 0.0 0.00 0.00 0.00 96 1020.2
20260830085007 19 249 0.0 0.0 0.00 0.00 0.00 96 1020.3
20260830084513 19 249 0.0 0.0 0.00 0.00 0.00 96 1020.3
20260830084013 19 249 0.0 0.0 0.00 0.00 0.00 96 1020.4
20260830083521 19 249 0.0 0.0 0.00 0.00 0.00 95 1020.4
20260830083024 19 249 0.0 0.0 0.00 0.00 0.00 95 1020.4
20260830082504 19 249 0.0 0.0 0.00 0.00 0.00 96 1020.4
20260830082004 19 249 0.0 0.0 0.00 0.00 0.00 95 1020.4
20260830081513 19 249 0.0 0.0 0.00 0.00 0.00 95 1020.5
20260830081008 19 249 0.0 0.0 0.00 0.00 0.00 95 1020.5
20260830080512 19 249 0.0 0.0 0.00 0.00 0.00 95 1020.6
20260830080015 19 249 0.0 0.0 0.00 0.00 0.00 95 1020.5
20260830075519 19 249 0.0 0.0 0.00 0.00 0.00 95 1020.5
20260830075017 19 249 0.0 0.0 0.00 0.00 0.00 95 1020.6
20260830074518 19 249 0.0 0.0 0.00 0.00 0.00 95 1020.7
20260830074103 19 249 0.0 0.0 0.00 0.00 0.00 95 1020.8
20260830073507 19 249 0.0 0.0 0.00 0.00 0.00 95 1020.7
20260830073024 20 249 0.0 0.0 0.00 0.00 0.00 95 1020.8
20260830072512 20 249 0.0 0.0 0.00 0.00 0.00 95 1020.8
20260830072013 20 249 0.0 0.0 0.00 0.00 0.00 95 1020.8
20260830071518 20 249 0.0 0.0 0.00 0.00 0.00 95 1020.7
20260830071016 20 249 0.0 0.0 0.00 0.00 0.00 95 1020.7
20260830070522 20 249 0.0 0.0 0.00 0.00 0.00 95 1020.8
20260830070003 20 249 0.0 0.0 0.00 0.00 0.00 95 1020.8
20260830065503 20 249 0.0 0.0 0.00 0.00 0.00 95 1020.9
20260830065004 20 249 0.0 0.0 0.00 0.00 0.00 95 1020.9
20260830064508 20 249 0.0 0.0 0.00 0.00 0.00 95 1021.0
20260830064008 20 249 0.0 0.0 0.00 0.00 0.00 95 1021.0
20260830063513 20 249 0.0 0.0 0.00 0.00 0.00 95 1021.0
20260830063015 20 249 0.0 0.0 0.00 0.00 0.00 95 1020.9
20260830062514 20 249 0.0 0.0 0.00 0.00 0.00 95 1020.8
20260830062018 20 249 0.0 0.0 0.00 0.00 0.00 95 1020.9
20260830061606 20 249 0.0 0.0 0.00 0.00 0.00 95 1020.9
20260830061103 20 249 0.0 0.0 0.00 0.00 0.00 95 1020.9
20260830060504 20 249 0.0 0.0 0.00 0.00 0.00 94 1021.0
20260830060004 20 249 0.0 0.0 0.00 0.00 0.00 94 1021.0
20260830055503 20 249 0.0 0.0 0.00 0.00 0.00 94 1021.0
20260830055008 20 249 0.0 0.0 0.00 0.00 0.00 94 1021.0
20260830054507 20 249 0.0 0.0 0.00 0.00 0.00 94 1021.1
20260830054012 21 249 0.0 0.0 0.00 0.00 0.00 94 1021.0
20260830053511 21 249 0.0 0.0 0.00 0.00 0.00 94 1021.0
20260830053016 21 249 0.0 0.0 0.00 0.00 0.00 94 1021.2
20260830052516 21 249 0.0 0.0 0.00 0.00 0.00 94 1021.2
20260830052015 21 249 0.0 0.0 0.00 0.00 0.00 94 1021.1
20260830051516 21 249 0.0 0.0 0.00 0.00 0.00 94 1021.1
20260830051023 21 249 0.0 0.0 0.00 0.00 0.00 94 1021.2
20260830050604 21 249 0.0 0.0 0.00 0.00 0.00 94 1021.3
20260830050003 21 249 0.0 0.0 0.00 0.00 0.00 94 1021.3
20260830045503 21 249 0.0 0.0 0.00 0.00 0.00 94 1021.3
20260830045007 21 249 0.0 0.0 0.00 0.00 0.00 94 1021.4
20260830044509 21 249 0.0 0.0 0.00 0.00 0.00 94 1021.5
20260830044010 21 249 0.0 0.0 0.00 0.00 0.00 93 1021.5
20260830043512 21 249 0.0 0.0 0.00 0.00 0.00 93 1021.5
20260830043015 21 249 0.0 0.0 0.00 0.00 0.00 93 1021.6
20260830042515 21 249 0.0 0.0 0.00 0.00 0.00 93 1021.6
20260830042019 21 249 0.0 0.0 0.00 0.00 0.00 93 1021.6
20260830041521 21 249 0.0 0.0 0.00 0.00 0.00 93 1021.6
20260830041004 22 249 0.0 0.0 0.00 0.00 0.00 93 1021.6
20260830040603 22 249 0.0 0.0 0.00 0.00 0.00 93 1021.6
20260830040004 22 249 0.0 0.0 0.00 0.00 0.00 93 1021.7
20260830035503 22 249 0.0 0.0 0.00 0.00 0.00 92 1021.7
20260830035004 22 249 0.0 0.0 0.00 0.00 0.00 92 1021.6
20260830034503 22 249 0.0 0.0 0.00 0.00 0.00 92 1021.7
20260830034003 22 249 0.0 0.0 0.00 0.00 0.00 92 1021.5
20260830033504 22 249 0.0 0.0 0.00 0.00 0.00 92 1021.5
20260830033003 22 249 0.0 0.0 0.00 0.00 0.00 92 1021.4
20260830032503 22 249 0.0 0.0 0.00 0.00 0.00 92 1021.3
20260830032003 22 249 0.0 0.0 0.00 0.00 0.00 91 1021.3
20260830031503 22 249 0.0 0.0 0.00 0.00 0.00 91 1021.2
20260830031008 22 249 0.0 0.0 0.00 0.00 0.00 91 1021.1
20260830030513 22 249 0.0 0.0 0.00 0.00 0.00 91 1021.1
20260830030012 22 249 0.0 0.0 0.00 0.00 0.00 91 1021.1
20260830025508 23 249 0.0 0.0 0.00 0.00 0.00 91 1021.1